Погода в Константиновке

Россия / Кировская область     56°41′10″N   50°52′13″E
темп.,
°C
ветер,
м/с
пор.,
м/с
влажн.,
%
обл.,
%
осадки,
мм/ч
давл.,
гПа
погр.,
м
12 апреля, пн
пн1200:00+1с2399100 0.0 1035144
03:00+1ссв2499100 0.0 1037129
06:00+1св1399100 0.0 1038121
09:00+5всв3592100 0.0 1039249
12:00+9всв347984 0.0 1039543
15:00+10всв3474100 0.0 1039681
18:00+7всв2592100 0.0 1039100
21:00+5в2693100 0.0 103997
13 апреля, вт
вт1300:00+4вюв269187 0.0 1039110
03:00+3вюв3793100 0.0 1038132
06:00+4вюв299099 0.0 1038204
09:00+9ююв467186 0.0 1037371
12:00+13ююв4566100 0.0 1035580
15:00+15ю3565100 0.0 1034674
18:00+11юв3784100 0.0 1033125
21:00+9ю369076 0.0 103294
14 апреля, ср
ср1400:00+8ююз228936 0.0 103231
03:00+7ююз229079 0.0 103121
06:00+7ю248745 0.0 103176
09:00+13ююз35555 0.0 1030400
12:00+16ююз453713 0.0 1029964
15:00+17ююз45339 0.0 10271115
18:00+13ююз22526 0.0 102636
21:00+10ююз226625 0.0 102611
15 апреля, чт
чт1500:00+8ю227859 0.0 102514
03:00+7ю228659 0.0 102414
06:00+8ю23845 0.0 102355
09:00+14ююз34635 0.0 1022448
12:00+17ююз355116 0.0 10201238
15:00+18юз344813 0.0 10181584
18:00+15юз226439 0.0 101725
21:00+12юз247741 0.0 101764
16 апреля, пт
пт1600:00+10юз228514 0.0 101627
03:00+9з12874 0.0 101512
06:00+8сз12815 0.0 101470
09:00+12ссз446451 0.0 1014596
12:00+12ссз5564100 0.0 1014920
15:00+4с61093100 0.0 1017642
18:00+4ссв6118299 0.1 1018964
21:00+3с41076100 0.1 10181058